Погода в Васильевском

Россия / Тульская область     54°27′33″N   38°10′50″E
темп.,
°C
ветер,
м/с
пор.,
м/с
влажн.,
%
обл.,
%
осадки,
мм/ч
давл.,
гПа
погр.,
м
13 мая, чт
чт1300:00+7ююв35947 0.0 1019215
03:00+6вюв3596100 0.0 1020102
06:00+7в499541 0.0 1019255
09:00+12вюв698084 0.0 1018525
12:00+15юв61070100 0.0 1017889
15:00+13ююв4991100 2.9 1017473
18:00+15ю6108229 0.7 1015882
21:00+11ююв2293100 2.4 101625
14 мая, пт
пт1400:00+10ююв339260 0.0 101633
03:00+9ююв2291100 0.0 101724
06:00+10юв2491100 0.0 1017101
09:00+16юв4682100 0.1 1016440
12:00+19юв6973100 1.1 1016850
15:00+21юв7107149 1.6 10141404
18:00+20юв71377100 1.0 1011833
21:00+15юв379275 1.6 1011111
15 мая, сб
сб1500:00+14ю4894100 0.6 1011147
03:00+15юв4895100 4.3 1010195
06:00+15юв5119699 1.1 1010304
09:00+19ю578670 2.4 1010453
12:00+21ююз686697 1.4 10101241
15:00+21юз710620 1.4 10101756
18:00+19ююз58710 0.3 1011471
21:00+14ююз33865 0.4 101237
16 мая, вс
вс1600:00+13ююз36935 0.0 101390
03:00+12ююз36932 0.0 1012103
06:00+12ююз37930 0.0 1013202
09:00+16юз687624 0.0 1013923
12:00+18юз67630 0.0 10141184
15:00+20зюз455913 0.0 10141515
18:00+19зюз237076 0.0 1014303
21:00+14св018116 0.0 101511
17 мая, пн
пн1700:00+13всв228767 0.0 101512
03:00+12всв34919 0.0 101559
06:00+13в499093 0.0 1015216
09:00+18в6107564 0.0 1014472
12:00+22вюв796923 0.0 1013876
15:00+25вюв6106622 0.0 10121239
18:00+22вюв6126744 0.0 1011458
21:00+17вюв41483100 0.0 1011262